When you browse on this site, cookies collect data to enhance your experience and personalize the content and advertising you see.
Visit our Privacy Policy to learn more. By continuing to use the site, you agree to this use of cookies and data.
  • In Lithuania
  • List of Countries
  • For 7 days
  • Water Temperature
  • Weather Map
  • Weather Widgets
  • user-avatar
    Login

    Hourly Weather Sherpur

    Today, 26 May, Tuesday

    Time Temperature Precipitation Wind Pressure Humidity
    00:00 +19°C° 0 mm 2 mps 611 mmHg 41%
    01:00 +19°C° 0 mm 2 mps 611 mmHg 43%
    02:00 +18°C° 0 mm 2 mps 611 mmHg 44%
    03:00 +18°C° 0 mm 1 mps 610 mmHg 44%
    04:00 +18°C° 0 mm 1 mps 610 mmHg 45%
    05:00 +17°C° 0 mm 2 mps 610 mmHg 46%
    06:00 +18°C° 0 mm 2 mps 610 mmHg 42%
    07:00 +21°C° 0 mm 1 mps 611 mmHg 37%
    08:00 +22°C° 0 mm 1 mps 612 mmHg 32%
    09:00 +23°C° 0 mm 1 mps 612 mmHg 29%
    10:00 +25°C° 0 mm 2 mps 612 mmHg 26%
    11:00 +26°C° 0 mm 2 mps 613 mmHg 22%
    12:00 +27°C° 0 mm 2 mps 613 mmHg 20%
    13:00 +28°C° 0 mm 3 mps 613 mmHg 19%
    14:00 +29°C° 0 mm 3 mps 613 mmHg 17%
    15:00 +29°C° 0 mm 4 mps 613 mmHg 17%
    16:00 +29°C° 0 mm 5 mps 612 mmHg 17%
    17:00 +29°C° 0 mm 5 mps 612 mmHg 17%
    18:00 +27°C° 0 mm 5 mps 612 mmHg 22%
    19:00 +26°C° 0 mm 4 mps 612 mmHg 26%
    20:00 +24°C° 0 mm 3 mps 612 mmHg 30%
    21:00 +22°C° 0 mm 3 mps 611 mmHg 32%
    22:00 +21°C° 0 mm 2 mps 611 mmHg 34%
    23:00 +20°C° 0 mm 2 mps 611 mmHg 37%

    Tomorrow, 27 May, Wednesday

    Time Temperature Precipitation Wind Pressure Humidity
    00:00 +20°C° 0 mm 2 mps 611 mmHg 38%
    01:00 +19°C° 0 mm 2 mps 610 mmHg 40%
    02:00 +18°C° 0 mm 2 mps 610 mmHg 42%
    03:00 +18°C° 0 mm 2 mps 610 mmHg 42%
    04:00 +17°C° 0 mm 2 mps 609 mmHg 43%
    05:00 +17°C° 0 mm 2 mps 609 mmHg 44%
    06:00 +18°C° 0 mm 2 mps 609 mmHg 40%
    07:00 +20°C° 0 mm 2 mps 610 mmHg 35%
    08:00 +21°C° 0 mm 2 mps 611 mmHg 31%
    09:00 +24°C° 0 mm 2 mps 611 mmHg 28%
    10:00 +25°C° 0 mm 3 mps 612 mmHg 25%
    11:00 +26°C° 0 mm 3 mps 612 mmHg 22%
    12:00 +27°C° 0 mm 4 mps 612 mmHg 21%
    13:00 +28°C° 0 mm 4 mps 612 mmHg 19%
    14:00 +29°C° 0 mm 5 mps 612 mmHg 18%
    15:00 +29°C° 0 mm 5 mps 611 mmHg 18%
    16:00 +28°C° 0 mm 6 mps 611 mmHg 19%
    17:00 +28°C° 0 mm 7 mps 611 mmHg 20%
    18:00 +27°C° 0 mm 6 mps 611 mmHg 25%
    19:00 +25°C° 0 mm 5 mps 610 mmHg 29%
    20:00 +22°C° 0 mm 4 mps 610 mmHg 34%
    21:00 +21°C° 0 mm 4 mps 610 mmHg 37%
    22:00 +21°C° 0 mm 3 mps 610 mmHg 40%
    23:00 +20°C° 0 mm 3 mps 610 mmHg 43%

    Day after tomorrow, 28 May, Thursday

    Time Temperature Precipitation Wind Pressure Humidity
    00:00 +19°C° 0 mm 2 mps 609 mmHg 45%
    01:00 +19°C° 0 mm 2 mps 609 mmHg 48%
    02:00 +18°C° 0 mm 2 mps 608 mmHg 50%
    03:00 +18°C° 0 mm 2 mps 608 mmHg 51%
    04:00 +17°C° 0 mm 2 mps 608 mmHg 51%
    05:00 +17°C° 0 mm 2 mps 607 mmHg 52%
    06:00 +18°C° 0 mm 2 mps 608 mmHg 47%
    07:00 +19°C° 0 mm 2 mps 609 mmHg 42%
    08:00 +22°C° 0 mm 1 mps 609 mmHg 37%
    09:00 +23°C° 0 mm 2 mps 610 mmHg 33%
    10:00 +24°C° 0 mm 2 mps 610 mmHg 30%
    11:00 +26°C° 0 mm 2 mps 610 mmHg 26%
    12:00 +27°C° 0 mm 2 mps 610 mmHg 25%
    13:00 +28°C° 0 mm 2 mps 610 mmHg 23%
    14:00 +29°C° 0 mm 2 mps 610 mmHg 21%
    15:00 +28°C° 0 mm 3 mps 610 mmHg 22%
    16:00 +28°C° 0 mm 4 mps 610 mmHg 23%
    17:00 +28°C° 0 mm 4 mps 610 mmHg 24%
    18:00 +26°C° 0.1 mm 5 mps 610 mmHg 31%
    19:00 +23°C° 0.1 mm 5 mps 610 mmHg 39%
    20:00 +21°C° 0.1 mm 5 mps 609 mmHg 46%
    21:00 +21°C° 0.2 mm 4 mps 609 mmHg 47%
    22:00 +20°C° 0.2 mm 4 mps 609 mmHg 49%
    23:00 +20°C° 0.2 mm 3 mps 609 mmHg 51%

    29 May, Friday

    Time Temperature Precipitation Wind Pressure Humidity
    00:00 +20°C° 0 mm 2 mps 609 mmHg 51%
    01:00 +19°C° 0 mm 2 mps 609 mmHg 51%
    02:00 +20°C° 0 mm 1 mps 609 mmHg 51%
    03:00 +20°C° 0 mm 1 mps 608 mmHg 53%
    04:00 +19°C° 0 mm 1 mps 608 mmHg 54%
    05:00 +19°C° 0 mm 1 mps 607 mmHg 56%
    06:00 +20°C° 0 mm 1 mps 608 mmHg 51%
    07:00 +21°C° 0 mm 1 mps 609 mmHg 45%
    08:00 +22°C° 0 mm 1 mps 610 mmHg 40%
    09:00 +23°C° 0 mm 1 mps 610 mmHg 36%
    10:00 +25°C° 0 mm 1 mps 610 mmHg 33%
    11:00 +26°C° 0 mm 1 mps 611 mmHg 29%
    12:00 +26°C° 0.2 mm 2 mps 611 mmHg 30%
    13:00 +26°C° 0.2 mm 3 mps 611 mmHg 31%
    14:00 +27°C° 0.2 mm 4 mps 611 mmHg 32%
    15:00 +25°C° 0.3 mm 3 mps 610 mmHg 36%
    16:00 +24°C° 0.3 mm 3 mps 610 mmHg 40%
    17:00 +22°C° 0.3 mm 3 mps 609 mmHg 44%
    18:00 +23°C° 0.1 mm 2 mps 610 mmHg 45%
    19:00 +21°C° 0.1 mm 2 mps 610 mmHg 47%
    20:00 +22°C° 0.1 mm 1 mps 610 mmHg 48%
    21:00 +22°C° 0 mm 1 mps 610 mmHg 49%
    22:00 +21°C° 0 mm 1 mps 609 mmHg 50%
    23:00 +21°C° 0 mm 1 mps 609 mmHg 51%

    30 May, Saturday

    Time Temperature Precipitation Wind Pressure Humidity
    00:00 +20°C° 0 mm 1 mps 609 mmHg 54%
    01:00 +20°C° 0 mm 1 mps 608 mmHg 56%
    02:00 +19°C° 0 mm 1 mps 608 mmHg 58%
    03:00 +19°C° 0 mm 1 mps 608 mmHg 58%
    04:00 +18°C° 0 mm 1 mps 607 mmHg 58%
    05:00 +18°C° 0 mm 1 mps 607 mmHg 58%
    06:00 +19°C° 0 mm 1 mps 608 mmHg 52%
    07:00 +19°C° 0 mm 0 mps 609 mmHg 46%
    08:00 +20°C° 0 mm 0 mps 610 mmHg 40%
    09:00 +23°C° 0 mm 1 mps 610 mmHg 36%
    10:00 +24°C° 0 mm 1 mps 611 mmHg 31%
    11:00 +25°C° 0 mm 1 mps 611 mmHg 27%
    12:00 +26°C° 0 mm 2 mps 611 mmHg 26%
    13:00 +27°C° 0 mm 2 mps 611 mmHg 25%
    14:00 +27°C° 0 mm 2 mps 611 mmHg 24%
    15:00 +27°C° 0 mm 2 mps 611 mmHg 25%
    16:00 +27°C° 0 mm 3 mps 611 mmHg 25%
    17:00 +27°C° 0 mm 3 mps 611 mmHg 26%
    18:00 +26°C° 0 mm 3 mps 611 mmHg 34%
    19:00 +24°C° 0 mm 3 mps 610 mmHg 41%
    20:00 +23°C° 0 mm 2 mps 610 mmHg 49%
    21:00 +21°C° 0 mm 2 mps 610 mmHg 52%
    22:00 +20°C° 0 mm 2 mps 610 mmHg 54%
    23:00 +20°C° 0 mm 1 mps 610 mmHg 57%

    31 May, Sunday

    Time Temperature Precipitation Wind Pressure Humidity
    00:00 +20°C° 0 mm 1 mps 610 mmHg 59%
    01:00 +19°C° 0 mm 1 mps 609 mmHg 61%
    02:00 +17°C° 0 mm 0 mps 609 mmHg 62%
    03:00 +16°C° 0 mm 0 mps 609 mmHg 63%
    04:00 +18°C° 0 mm 1 mps 609 mmHg 64%
    05:00 +16°C° 0 mm 1 mps 609 mmHg 64%
    06:00 +19°C° 0 mm 1 mps 609 mmHg 57%
    07:00 +20°C° 0 mm 1 mps 610 mmHg 50%
    08:00 +21°C° 0 mm 1 mps 610 mmHg 43%
    09:00 +22°C° 0 mm 1 mps 611 mmHg 37%
    10:00 +24°C° 0 mm 1 mps 611 mmHg 30%
    11:00 +25°C° 0 mm 1 mps 612 mmHg 24%
    12:00 +26°C° 0 mm 1 mps 612 mmHg 22%
    13:00 +27°C° 0 mm 2 mps 612 mmHg 20%
    14:00 +28°C° 0 mm 2 mps 612 mmHg 18%
    15:00 +28°C° 0 mm 3 mps 612 mmHg 17%
    16:00 +29°C° 0 mm 3 mps 612 mmHg 16%
    17:00 +29°C° 0 mm 4 mps 612 mmHg 15%
    18:00 +27°C° 0 mm 4 mps 611 mmHg 20%
    19:00 +26°C° 0 mm 4 mps 611 mmHg 24%
    20:00 +23°C° 0 mm 4 mps 610 mmHg 28%
    21:00 +22°C° 0 mm 3 mps 610 mmHg 31%
    22:00 +21°C° 0 mm 3 mps 610 mmHg 34%
    23:00 +20°C° 0 mm 2 mps 611 mmHg 37%
    Show more